Weather History for TNCM - November, 2010

Change the Weather History Date:

Sunday, November 7, 2010

  Actual Average Record
Temperature  
Mean Temperature 80 °F -  
Max Temperature 84 °F 84 °F 102 °F (2001)
Min Temperature 75 °F 74 °F 75 °F (2000)
Cooling Degree Days 14    
Growing Degree Days 30 (Base 50)    
Moisture  
Dew Point 75 °F    
Average Humidity 83    
Maximum Humidity 94    
Minimum Humidity 71    
Precipitation  
Precipitation 0.94 in 0.16 in - ()
Sea Level Pressure  
Sea Level Pressure 29.79 in    
Wind  
Wind Speed 7 mph ()    
Max Wind Speed 15 mph    
Max Gust Speed 21 mph    
Visibility 5.6 miles    
Events Rain , Thunderstorm    
Averages and records for this station are not official NWS values.
T = Trace of Precipitation, MM = Missing Value Source: Averaged Metar Reports

Daily Weather History Graph

Daily Weather History Graph

Search for Another Location

Airport or City:

Trip Planner

Search our weather history database for the weather conditions in past years. The results will help you decide how hot, cold, wet, or windy it might be!

Date:

Astronomy

Nov. 07, 2010 Rise Set
Actual Time 6:14 AM AST 5:37 PM AST
Civil Twilight 5:51 AM AST 6:00 PM AST
Nautical Twilight 5:25 AM AST 6:26 PM AST
Astronomical Twilight 4:59 AM AST 6:52 PM AST
Moon 7:34 AM AST (11/7) 6:54 PM AST (11/7)
Length of Visible Light 12h 08m
Length of Day
11h 23m
Waxing Crescent, 3% of the Moon is Illuminated
Nov 7
Waxing Crescent
Nov 13
First Quarter
Nov 21
Full
Nov 28
Last Quarter
Dec 5
New

Hourly Weather History & Observations

Time (AST) Temp. Heat Index Dew Point Humidity Pressure Visibility Wind Dir Wind Speed Gust Speed Precip Events Conditions
12:00 AM 80.6 °F 85.4 °F 73.4 °F 79% 29.83 in 6.2 mi ESE 8.1 mph - N/A   Partly Cloudy
1:00 AM 80.6 °F 85.4 °F 73.4 °F 79% 29.83 in 6.2 mi ESE 5.8 mph - N/A   Partly Cloudy
2:00 AM 81 °F - 74 °F 74% 29.80 in 22 mi ESE 4.6 mph - -   Scattered Clouds
2:00 AM 80.6 °F 85.4 °F 73.4 °F 79% 29.77 in 6.2 mi ESE 4.6 mph - N/A   Partly Cloudy
3:00 AM 80.6 °F 85.4 °F 73.4 °F 79% 29.77 in 6.2 mi ESE 5.8 mph - N/A   Partly Cloudy
4:00 AM 80.6 °F 85.4 °F 73.4 °F 79% 29.77 in 6.2 mi ESE 6.9 mph - N/A   Partly Cloudy
5:00 AM 80 °F - 74 °F 77% 29.79 in 22 mi ESE 5.8 mph - -   Scattered Clouds
5:00 AM 80.6 °F 86.2 °F 75.2 °F 84% 29.77 in 6.2 mi ESE 5.8 mph - N/A   Partly Cloudy
6:00 AM 80.6 °F 85.4 °F 73.4 °F 79% 29.77 in 6.2 mi ESE 5.8 mph - N/A   Partly Cloudy
7:00 AM 80.6 °F 86.2 °F 75.2 °F 84% 29.80 in 6.2 mi SE 6.9 mph - N/A   Partly Cloudy
8:00 AM 82 °F - 74 °F 71% 29.82 in 28 mi SE 5.8 mph - -   Scattered Clouds
8:00 AM 82.4 °F 88.2 °F 73.4 °F 74% 29.80 in 6.2 mi SE 9.2 mph - N/A   Partly Cloudy
9:00 AM 82.4 °F 89.5 °F 75.2 °F 79% 29.83 in 6.2 mi SE 8.1 mph - N/A   Partly Cloudy
10:00 AM 82.4 °F 89.5 °F 75.2 °F 79% 29.83 in 6.2 mi SE 11.5 mph - N/A   Partly Cloudy
11:00 AM 83 °F - 75 °F 71% 29.82 in 28 mi SSE 12.7 mph - -   Mostly Cloudy
11:00 AM 84.2 °F 92.3 °F 75.2 °F 74% 29.80 in 6.2 mi SE 12.7 mph - N/A   Mostly Cloudy
12:00 PM 82.4 °F 89.5 °F 75.2 °F 79% 29.77 in 6.2 mi SE 11.5 mph - N/A Rain Light Rain Showers
1:00 PM 84.2 °F 94.1 °F 77.0 °F 79% 29.77 in 6.2 mi SSE 9.2 mph - N/A   Mostly Cloudy
2:00 PM 83 °F - 76 °F 73% 29.74 in 12 mi SSE 10.4 mph - -   Partly Cloudy
2:00 PM 82.4 °F 89.5 °F 75.2 °F 79% 29.74 in 6.2 mi SSE 10.4 mph - N/A   Scattered Clouds
3:00 PM 82.4 °F 89.5 °F 75.2 °F 79% 29.71 in 6.2 mi South 6.9 mph - N/A   Scattered Clouds
4:00 PM 80.6 °F 86.2 °F 75.2 °F 84% 29.74 in - ENE 13.8 mph - N/A Rain Rain Showers
4:14 PM 80.6 °F 86.2 °F 75.2 °F 84% 29.74 in 1.2 mi ENE 13.8 mph - N/A Rain Rain Showers
4:21 PM 80.6 °F 86.2 °F 75.2 °F 84% 29.74 in 1.2 mi ENE 13.8 mph - N/A Rain Rain Showers
5:00 PM 80 °F - 76 °F 84% 29.75 in 6 mi SW 6.9 mph - - Rain Light Rain Showers
5:00 PM 80.6 °F 87.1 °F 77.0 °F 89% 29.74 in 6.2 mi SW 6.9 mph - N/A Rain Light Rain Showers
5:34 PM 77.0 °F - 73.4 °F 89% 29.77 in 1.2 mi SW 5.8 mph - N/A Rain Rain Showers
6:00 PM 75.2 °F - 73.4 °F 94% 29.77 in 3.7 mi South 6.9 mph - N/A Rain , Thunderstorm Thunderstorms and Rain
7:00 PM 77.0 °F - 75.2 °F 94% 29.77 in 6.2 mi South 5.8 mph - N/A Rain Light Rain Showers
8:00 PM 79 °F - 77 °F 90% 29.80 in 12 mi SSE 8.1 mph - - Rain Light Rain Showers
8:00 PM 78.8 °F - 77.0 °F 94% 29.80 in 6.2 mi SSE 8.1 mph - N/A   Mostly Cloudy
9:00 PM 78.8 °F - 75.2 °F 89% 29.83 in 3.7 mi SW 5.8 mph 20.7 mph N/A Rain Rain Showers
9:25 PM 75.2 °F - 73.4 °F 94% 29.86 in 1.9 mi WNW 15.0 mph - N/A Rain , Thunderstorm Thunderstorms and Rain
10:00 PM 75.2 °F - 73.4 °F 94% 29.83 in 3.7 mi West 8.1 mph - N/A Rain , Thunderstorm Thunderstorms and Rain
11:00 PM 76 °F - 74 °F 92% 29.81 in 4 mi SSW 5.8 mph - - Rain Light Rain Showers
11:00 PM 77.0 °F - 73.4 °F 89% 29.80 in 3.7 mi SSW 5.8 mph - N/A Rain Rain Showers